Theta_e
318 316 317 317 315 314 315 315 314 314 317 317 316 315 314 316 316 317 318 318 318 318 316 316 316 316 316 316 315 315 313 313 314 314 315 318 321 323 326 329 328 327 329 330
318 317 314 315 315 316 316 316 316 317 316 317 316 316 315 314 315 315 316 316 317 316 315 315 315 316 316 315 313 312 312 313 313 313 318 323 326 327 326 326 326 327 328 327
316 315 316 315 316 315 315 315 315 315 316 315 314 311 312 312 315 315 315 315 316 315 314 314 314 314 313 312 312 312 313 314 315 316 319 325 325 325 326 326 327 325 324 324
315 314 315 315 317 316 318 315 316 317 316 315 313 313 312 313 313 313 314 314 313 313 312 312 313 312 311 311 311 311 312 314 316 318 318 323 323 323 322 322 322 322 321 321
315 314 315 316 316 315 316 315 315 317 317 315 314 313 312 312 313 313 311 312 312 312 312 311 311 310 309 308 309 309 310 310 314 318 318 319 319 319 319 319 320 319 314 308
314 315 315 315 315 314 315 316 316 315 313 309 313 312 311 312 313 312 311 311 312 312 311 309 308 307 307 307 308 308 308 309 308 310 316 318 318 318 317 315 310 308 306 303
315 315 314 315 316 316 316 315 315 315 315 312 311 314 312 311 311 311 310 310 310 310 309 308 306 306 306 306 306 306 307 307 307 307 307 307 307 306 305 303 301 300 299 299
316 316 315 314 315 316 316 315 312 313 315 314 311 313 312 311 312 313 312 311 309 308 308 307 307 307 307 306 306 306 305 305 304 303 302 302 301 300 299 299 299 299 299 299
315 315 312 313 313 314 317 318 314 313 304 310 310 310 308 311 309 310 310 309 308 308 307 307 307 307 306 305 305 305 304 303 302 301 300 299 299 299 299 299 299 299 299 298
312 314 312 313 313 313 314 313 314 308 307 310 309 310 309 310 309 308 307 308 309 308 307 307 306 306 305 305 305 305 304 302 301 300 299 298 299 299 299 299 299 299 298 297
310 311 313 313 314 314 313 313 314 313 309 310 310 309 307 309 308 309 308 310 310 309 309 308 306 307 305 305 304 303 302 300 300 299 298 298 299 299 299 299 298 298 297 296
311 311 313 314 310 312 312 312 312 309 311 308 309 308 307 308 308 310 310 311 310 310 309 308 307 308 307 306 305 303 301 300 298 298 297 298 298 298 298 298 298 297 296 294
311 310 309 310 310 310 312 312 311 311 310 312 311 309 307 307 308 310 310 310 310 309 309 308 307 307 306 306 304 303 302 299 297 297 297 297 297 298 298 297 296 294 293 292
311 311 309 309 309 310 311 312 311 312 307 312 312 309 309 309 308 308 309 309 309 309 309 309 308 308 306 305 305 303 301 298 297 296 296 296 297 297 296 295 293 292 292 291
310 309 310 310 308 308 309 309 308 310 310 311 310 309 308 308 307 308 309 309 309 309 309 309 309 308 307 305 304 303 300 297 296 295 295 295 295 295 295 292 291 290 290 290
309 307 308 304 307 306 306 306 306 307 307 307 307 308 306 307 307 306 306 306 307 307 308 307 307 307 307 306 304 301 298 296 294 293 293 294 295 294 292 292 290 289 289 288
309 304 299 299 304 302 298 302 305 305 305 305 305 305 303 303 303 304 305 306 307 307 307 307 307 307 307 306 304 301 297 294 292 291 292 293 293 291 291 290 289 288 288 287
307 304 301 294 294 297 302 301 303 303 303 303 303 303 303 303 305 305 305 305 305 306 305 304 305 306 307 306 302 298 295 293 291 291 291 290 289 289 287 288 288 287 287 286
304 304 300 303 289 299 301 301 301 302 301 300 302 301 301 302 302 300 301 301 301 302 303 304 304 304 305 304 300 296 294 292 291 290 289 288 288 289 290 287 286 286 285 285
303 303 300 293 296 297 300 301 303 300 301 301 301 299 299 300 299 298 302 302 302 303 302 302 303 303 302 300 296 292 291 290 289 288 287 289 290 289 288 286 284 285 284 283
300 299 300 296 297 297 298 300 302 299 300 300 301 301 300 299 300 301 301 301 301 300 300 300 300 300 299 295 292 291 290 288 287 286 288 288 288 286 284 284 284 283 282 282
300 302 298 300 300 300 300 299 300 300 301 301 301 301 300 301 301 301 301 300 299 299 298 298 298 296 294 292 290 289 287 286 286 287 286 286 284 283 283 282 282 282 281 280
297 298 297 299 299 299 299 301 302 302 301 301 301 301 301 300 300 300 299 298 297 296 295 295 293 292 291 289 288 288 287 286 286 286 285 284 282 282 282 281 281 280 279 279
295 297 295 294 296 297 299 301 301 300 300 300 301 301 301 300 300 298 297 295 294 293 292 292 290 289 288 287 286 286 286 285 284 284 283 281 281 282 281 280 279 279 278 277
296 294 293 293 296 298 300 300 300 300 300 300 300 300 300 300 299 297 295 293 292 291 290 289 288 287 286 285 284 284 284 285 284 282 281 281 280 280 279 278 278 278 278 277
296 297 297 298 298 298 298 299 299 300 300 301 300 299 299 298 297 296 293 291 290 289 288 288 287 285 284 284 283 284 283 283 282 281 281 280 279 279 278 278 278 278 277 276
Wind_Speed
4 3 5 6 5 5 4 1 5 2 1 2 5 7 9 23 20 20 20 21 18 14 11 13 15 12 10 14 18 22 21 20 20 19 16 12 8 12 15 14 14 17 17 17
3 4 6 8 7 6 2 1 2 2 5 3 6 12 12 18 20 25 27 25 22 16 15 14 10 8 12 16 14 12 12 13 13 13 11 9 7 8 10 12 16 15 16 17
6 4 15 5 3 5 3 4 2 1 3 2 3 9 5 8 25 26 24 17 18 21 18 12 7 7 9 7 7 7 7 8 8 7 11 9 9 11 12 13 14 12 14 14
5 6 7 4 4 4 2 4 4 1 3 3 4 5 6 5 4 7 13 15 19 20 13 8 4 4 5 5 5 6 5 4 4 5 8 15 14 15 14 15 14 14 13 14
7 7 5 7 5 6 3 1 7 3 2 3 3 2 7 5 6 5 11 21 17 13 8 6 3 3 2 2 2 2 2 2 1 2 5 9 10 11 11 11 13 12 7 6
3 1 5 6 3 5 4 3 4 3 3 2 9 7 5 3 5 4 12 20 16 12 9 5 4 1 1 2 2 2 2 1 1 2 4 6 9 9 9 9 7 5 3 3
3 3 1 3 5 2 5 4 2 1 2 5 2 4 7 4 3 8 14 18 16 12 9 5 2 2 2 2 1 2 2 2 1 2 3 3 4 4 5 4 3 1 2 3
6 3 7 5 6 6 7 6 4 6 4 3 1 5 5 5 4 16 24 23 18 13 9 5 4 4 3 3 3 3 3 3 2 2 3 3 4 4 3 2 1 2 4 5
5 5 2 3 4 7 6 9 3 3 1 2 4 5 7 6 5 15 24 21 17 14 9 6 6 6 4 5 5 6 6 6 4 4 4 5 5 4 3 2 2 3 5 7
3 3 1 2 3 2 3 4 1 2 3 4 4 3 5 6 6 6 10 14 12 10 8 7 7 5 6 7 7 8 9 9 8 7 8 7 7 6 5 3 3 5 7 8
2 4 2 5 6 11 4 3 4 3 3 4 1 4 4 4 6 8 10 12 12 9 7 8 7 6 6 8 9 10 11 11 12 11 11 10 9 7 6 5 4 5 7 9
5 3 4 4 2 3 6 4 4 3 3 3 3 5 6 6 9 16 13 9 6 6 8 9 9 10 11 12 12 14 13 14 15 14 13 12 10 9 7 7 7 7 8 8
7 4 2 2 3 4 6 7 5 3 2 5 4 4 4 10 6 7 6 5 7 7 10 13 15 17 17 17 16 17 17 18 18 16 16 14 12 10 9 8 7 6 6 6
10 3 4 7 3 5 7 11 11 9 4 7 10 7 13 12 2 5 12 12 13 19 22 21 20 23 24 23 23 22 22 21 21 20 18 16 14 12 10 8 6 7 7 6
8 3 8 2 3 2 3 6 8 9 7 8 2 8 7 8 11 20 21 21 23 22 23 27 28 29 30 29 29 28 25 23 22 22 20 18 16 13 10 8 6 6 7 4
1 2 3 3 5 4 4 6 4 4 5 6 9 15 10 21 19 23 27 30 32 34 30 22 25 30 34 35 34 32 28 24 24 23 21 18 16 14 11 8 6 5 5 3
6 5 3 5 2 3 6 8 10 8 6 6 10 15 12 13 17 19 26 29 31 34 39 37 31 34 35 36 37 35 29 26 23 22 20 17 16 13 10 8 7 6 5 4
6 6 3 3 4 3 5 6 12 15 14 12 11 14 21 20 26 25 21 23 28 30 27 30 29 27 30 34 35 34 30 27 23 21 19 16 14 11 8 6 6 7 5 3
4 5 3 5 4 6 6 3 6 7 10 8 15 16 21 26 24 22 23 25 26 25 22 22 27 24 26 31 33 33 29 25 21 20 18 16 14 13 10 8 8 8 6 4
3 4 4 3 5 9 3 12 22 1 17 19 19 15 16 17 7 5 13 16 18 20 23 24 23 20 21 27 29 26 23 22 21 20 18 16 14 11 8 10 9 6 5 3
4 2 6 4 4 7 6 15 17 8 14 10 12 13 13 7 20 28 24 22 21 21 21 21 19 17 19 23 23 22 21 21 20 19 17 15 13 10 12 10 7 5 3 2
8 8 5 4 4 11 16 6 13 15 21 25 25 25 24 26 28 28 26 25 22 21 20 20 17 17 19 21 21 20 20 19 18 17 16 14 12 13 11 9 7 5 2 2
2 7 6 9 8 6 9 16 23 31 29 28 27 22 29 33 35 32 30 28 25 23 20 19 19 19 20 21 20 19 18 19 18 17 15 13 14 11 9 7 5 3 2 1
4 5 3 4 8 13 17 19 25 30 31 30 31 33 31 31 32 30 30 30 27 23 21 20 20 21 21 20 18 18 18 18 18 17 15 14 12 11 9 6 4 2 1 2
9 7 7 5 14 18 34 40 40 36 36 38 38 29 26 28 31 29 28 27 26 23 21 20 20 20 20 19 19 19 19 18 18 16 16 14 12 9 6 5 3 2 2 4
13 12 7 10 21 21 29 38 33 29 28 26 26 33 34 30 29 28 27 27 25 22 20 20 19 19 20 20 20 20 19 19 19 17 15 12 9 7 7 4 3 4 5 6
Wind_Direction
191 116 196 220 210 166 101 163 231 130 228 122 247 263 254 274 268 248 244 242 246 254 260 226 220 219 242 269 276 274 270 267 268 267 263 253 240 234 238 241 244 249 258 258
138 232 225 217 231 252 220 7 278 57 166 145 279 271 255 246 247 244 249 250 253 247 196 191 200 236 267 277 277 276 275 276 271 263 243 227 216 217 228 238 242 249 258 264
157 222 208 208 179 179 188 194 258 66 357 311 328 293 298 258 240 242 243 251 244 228 181 177 200 254 279 271 280 289 288 284 278 258 209 192 204 216 224 231 243 255 265 268
221 250 170 196 175 134 200 235 237 13 63 231 92 286 306 276 201 185 182 146 141 148 159 176 213 251 276 287 290 294 303 301 282 242 205 206 210 223 229 243 250 257 264 269
210 180 177 166 174 161 241 143 177 153 210 354 259 196 273 239 243 193 133 141 144 152 173 188 203 242 251 248 268 304 332 334 328 219 207 184 190 202 214 230 244 254 257 264
178 258 150 153 145 173 143 78 63 71 90 293 214 173 267 240 198 113 136 146 151 163 161 171 210 249 301 295 294 320 337 333 230 197 203 205 204 203 212 220 231 248 262 272
136 175 104 120 116 110 127 119 136 231 226 230 335 168 248 250 135 150 156 153 159 165 162 173 236 273 280 265 289 305 302 291 241 203 197 182 178 169 172 178 189 219 280 300
160 189 173 179 169 170 179 176 170 199 204 260 294 228 253 217 138 167 171 165 160 163 167 186 255 265 261 254 260 273 272 265 233 202 190 174 171 173 175 177 208 296 311 313
148 197 87 141 132 135 186 216 215 102 11 80 224 290 320 281 97 126 146 156 162 168 184 219 243 242 248 261 280 291 289 280 264 236 221 211 207 204 208 218 266 297 306 309
161 108 318 150 112 177 165 165 146 355 169 237 280 238 231 327 209 142 147 162 173 192 211 239 238 240 246 253 268 271 272 272 263 249 237 230 225 224 228 244 285 304 311 312
162 113 181 128 202 190 153 216 226 150 163 177 224 261 217 100 102 159 173 178 189 205 238 246 251 249 257 264 262 258 255 251 250 246 241 237 237 240 248 257 269 296 308 311
215 119 158 169 349 205 226 207 202 143 232 229 157 261 220 140 120 119 145 166 201 234 247 253 264 262 267 268 271 269 264 253 248 243 240 239 240 245 255 268 282 295 298 299
168 147 110 64 355 329 237 220 232 270 74 205 171 271 336 101 104 115 139 185 221 245 267 270 263 265 264 266 268 269 264 254 247 244 241 239 240 242 249 260 272 281 287 284
136 157 191 206 204 152 189 206 218 212 208 240 233 283 294 303 345 320 322 316 293 288 287 281 276 276 269 267 266 263 260 251 245 242 240 238 238 240 243 250 266 273 270 267
142 151 185 196 148 118 176 195 199 213 223 240 220 261 251 279 288 294 303 298 289 282 273 274 274 276 269 261 261 258 255 250 245 240 238 237 237 238 243 245 248 255 258 253
130 199 114 328 156 179 224 233 219 214 235 254 242 260 255 265 280 272 275 281 283 284 281 280 283 280 272 262 257 255 252 247 243 239 236 235 237 237 237 243 239 243 248 242
147 128 94 245 348 50 318 206 215 228 215 215 250 258 269 263 257 268 279 283 283 280 284 289 286 285 283 269 258 251 247 244 240 236 235 234 233 232 229 226 217 218 222 211
136 117 101 204 43 293 234 215 197 213 233 239 258 257 257 264 268 278 285 293 294 291 295 299 295 287 277 266 251 245 242 241 239 236 234 231 226 219 201 202 224 221 211 195
105 121 138 165 202 300 285 261 173 174 247 213 240 261 271 280 287 287 293 280 280 288 295 297 303 295 274 256 245 238 239 240 238 233 226 219 214 215 215 197 212 208 199 197
129 106 137 124 174 214 230 211 228 111 269 225 244 255 264 288 291 278 292 288 280 293 301 300 295 282 268 245 237 235 237 236 231 224 217 217 222 213 193 199 194 188 190 197
142 95 189 187 228 275 230 159 155 161 262 228 239 255 263 251 272 293 289 284 286 293 294 292 278 260 243 232 230 233 234 228 222 215 214 209 199 179 193 189 180 176 183 205
164 169 193 160 223 266 207 169 193 223 246 266 276 281 281 288 294 293 289 287 284 280 276 273 254 240 233 231 232 231 226 219 213 209 201 187 176 185 182 177 174 177 189 264
221 186 183 185 209 211 185 208 227 238 252 262 274 281 295 295 292 293 290 282 276 273 263 251 243 237 233 233 234 232 221 214 205 193 188 178 183 176 175 177 191 201 208 288
271 180 204 82 259 234 235 236 257 268 269 271 280 282 287 288 289 288 287 282 273 265 253 246 239 236 234 231 225 211 204 196 190 184 180 182 177 173 179 191 197 205 252 297
207 142 209 262 269 277 267 263 266 273 278 281 277 275 279 284 284 286 285 274 264 256 250 244 239 233 227 217 203 193 191 186 185 180 183 181 181 181 184 197 215 245 280 308
208 222 205 236 248 246 258 267 271 270 265 257 268 282 285 280 280 281 276 267 258 251 244 237 233 224 210 198 191 187 182 185 187 182 182 185 188 193 200 210 242 278 299 307